Location: NJAA Observatory
(40.6819°N, 74.8979°W)
Time: 04:12:05
(UTC-05:00)

S-56A Canister/Altair - Visible Passes

Search period start: 24 November 2017 00:00
Search period end: 04 December 2017 00:00
Orbit: 634 x 2499 km, 38.9° (Epoch: 23 November)

Date Brightness Start Highest point End Pass type
(mag) Time Alt. Az. Time Alt. Az. Time Alt. Az.
24 Nov 11.4 00:57:53 19° ESE 00:57:53 19° ESE 01:02:37 10° E visible
24 Nov 10.1 02:55:20 55° SSE 02:56:37 56° SSE 03:10:56 10° ENE visible
24 Nov 10.0 04:52:48 26° WSW 05:03:10 81° S 05:16:58 10° E visible
25 Nov 11.7 00:27:22 12° E 00:27:22 12° E 00:28:28 10° E visible
25 Nov 10.3 02:24:49 50° SE 02:24:49 50° SE 02:37:35 10° ENE visible
25 Nov 10.0 04:22:16 39° WSW 04:29:40 79° SSE 04:43:57 10° E visible
25 Nov 10.1 06:21:27 10° W 06:36:46 81° S 06:49:18 10° ESE visible
26 Nov 10.6 01:54:13 40° ESE 01:54:13 40° ESE 02:04:08 10° ENE visible
26 Nov 9.9 03:51:40 54° SW 03:56:10 77° SSE 04:10:49 10° E visible
26 Nov 10.0 05:49:07 13° W 06:03:20 82° S 06:16:29 10° ESE visible
27 Nov 11.0 01:23:33 30° E 01:23:33 30° E 01:30:36 10° ENE visible
27 Nov 9.8 03:21:00 69° SSW 03:22:42 74° SSE 03:37:36 10° E visible
27 Nov 10.0 05:18:26 22° W 05:29:50 83° S 05:43:35 10° E visible
28 Nov 11.3 00:52:50 20° E 00:52:50 20° E 00:56:57 10° ENE visible
28 Nov 9.9 02:50:17 70° SE 02:50:17 70° SE 03:04:19 10° E visible
28 Nov 10.0 04:47:43 34° W 04:56:19 84° S 05:10:35 10° E visible
29 Nov 11.6 00:22:04 13° E 00:22:04 13° E 00:23:11 10° E visible
29 Nov 10.2 02:19:31 55° ESE 02:19:31 55° ESE 02:30:55 10° E visible
29 Nov 9.9 04:16:57 48° W 04:22:47 84° S 04:37:28 10° E visible
29 Nov 10.1 06:14:42 10° W 06:29:47 70° SSW 06:42:45 10° ESE visible
30 Nov 10.6 01:48:44 41° E 01:48:44 41° E 01:57:28 10° ENE visible
30 Nov 9.7 03:46:10 65° WSW 03:49:15 84° S 04:04:16 10° E visible
30 Nov 10.1 05:43:36 17° W 05:56:22 74° SSW 06:09:56 10° ESE visible
01 Dec 11.0 01:17:55 29° E 01:17:55 29° E 01:23:56 10° ENE visible
01 Dec 9.7 03:15:21 82° SSW 03:15:45 83° S 03:30:59 10° E visible
01 Dec 10.0 05:12:48 26° W 05:22:55 76° SSW 05:37:01 10° ESE visible
02 Dec 11.4 00:47:07 19° E 00:47:07 19° E 00:50:20 10° ENE visible
02 Dec 9.9 02:44:33 70° ESE 02:44:33 70° ESE 02:57:35 10° E visible
02 Dec 10.0 04:41:59 38° W 04:49:26 79° SSW 05:03:59 10° ESE visible
03 Dec 11.7 00:16:18 11° ENE 00:16:18 11° ENE 00:16:41 10° ENE visible
03 Dec 10.3 02:13:44 52° E 02:13:44 52° E 02:24:09 10° E visible
03 Dec 9.8 04:11:10 53° W 04:15:55 80° S 04:30:51 10° ESE visible
03 Dec 10.3 06:08:36 12° WNW 06:22:24 55° SSW 06:35:30 10° SE visible
